Detroit Metro, MI

6:44 PM EDT on August 22, 2017 (GMT -0400)
Detroit Metro Wayne County

Weather History for KDTW - June, 2012

Change the Weather History Date:

Tuesday, June 19, 2012

  Actual Average Record
Temperature  
Mean Temperature 85 °F 71 °F  
Max Temperature 95 °F 81 °F 95 °F (1995)
Min Temperature 75 °F 61 °F 46 °F (1926)
Degree Days  
Heating Degree Days 0 1  
Month to date heating degree days 19 31  
Since 1 June heating degree days 19 31  
Since 1 July heating degree days 4883 6133  
Cooling Degree Days 20 6  
Month to date cooling degree days 112 85  
Year to date cooling degree days 229 133  
Since 1 June cooling degree days 112 85  
Growing Degree Days 34 (Base 50)    
Moisture  
Dew Point 65 °F    
Average Humidity 57    
Maximum Humidity 74    
Minimum Humidity 39    
Precipitation  
Precipitation 0.00 in 0.11 in 2.59 in (2009)
Month to date precipitation 1.24 2.30  
Year to date precipitation 12.97 14.84  
Snow  
Snow 0.00 in 0.00 in 0.00 in ()
Month to date snowfall 0.0 0.0  
Since 1 June snowfall 0.0 0.0  
Since 1 July snowfall 26.0 42.5  
Snow Depth 0.00 in    
Sea Level Pressure  
Sea Level Pressure 29.96 in    
Wind  
Wind Speed 13 mph (SSW)    
Max Wind Speed 20 mph    
Max Gust Speed 24 mph    
Visibility 10 miles    
Events      
T = Trace of Precipitation, MM = Missing Value Source: NWS Daily Summary

Daily Weather History Graph

Daily Weather History Graph

Search for Another Location

Airport or City:

Trip Planner

Search our weather history database for the weather conditions in past years. The results will help you decide how hot, cold, wet, or windy it might be!

Date:

Astronomy

Jun. 19, 2012 Rise Set
Actual Time 5:56 AM EDT 9:12 PM EDT
Civil Twilight 5:22 AM EDT 9:47 PM EDT
Nautical Twilight 4:37 AM EDT 10:32 PM EDT
Astronomical Twilight 3:42 AM EDT 11:26 PM EDT
Moon 6:01 AM EDT (6/19) 9:15 PM EDT (6/19)
Length of Visible Light 16h 25m
Length of Day
15h 16m
New Moon, 0% of the Moon is Illuminated
Jun 19
New Moon
Jun 26
First Quarter
Jul 3
Full
Jul 10
Last Quarter
Jul 19
New

Hourly Weather History & Observations

Time (EDT) Temp. Heat Index Dew Point Humidity Pressure Visibility Wind Dir Wind Speed Gust Speed Precip Events Conditions
12:53 AM 75.0 °F - 66.0 °F 73% 29.91 in 10.0 mi South 5.8 mph - N/A   Mostly Cloudy
1:53 AM 75.9 °F - 64.9 °F 69% 29.90 in 10.0 mi South 10.4 mph - N/A   Overcast
2:53 AM 77.0 °F - 64.0 °F 64% 29.89 in 10.0 mi SSW 16.1 mph - N/A   Overcast
3:53 AM 77.0 °F - 63.0 °F 62% 29.89 in 10.0 mi SSW 12.7 mph - N/A   Overcast
4:53 AM 77.0 °F - 62.6 °F 61% 29.90 in 10.0 mi SSW 13.8 mph - N/A   Overcast
5:53 AM 75.9 °F - 63.0 °F 64% 29.89 in 10.0 mi SSW 11.5 mph - N/A   Overcast
6:53 AM 75.0 °F - 63.0 °F 66% 29.94 in 10.0 mi SSW 13.8 mph - N/A   Mostly Cloudy
7:53 AM 78.1 °F - 63.0 °F 60% 29.94 in 10.0 mi SSW 16.1 mph - N/A   Mostly Cloudy
8:53 AM 78.1 °F - 63.0 °F 60% 29.95 in 10.0 mi SSW 16.1 mph - N/A   Mostly Cloudy
9:53 AM 82.0 °F 83.4 °F 64.0 °F 54% 29.96 in 10.0 mi SSW 16.1 mph - N/A   Mostly Cloudy
10:53 AM 84.9 °F 87.1 °F 66.0 °F 53% 29.97 in 10.0 mi SW 15.0 mph 23.0 mph N/A   Scattered Clouds
11:53 AM 88.0 °F 90.7 °F 66.9 °F 49% 29.98 in 10.0 mi WSW 15.0 mph 23.0 mph N/A   Scattered Clouds
12:53 PM 90.0 °F 92.8 °F 66.9 °F 46% 29.99 in 10.0 mi SW 13.8 mph - N/A   Scattered Clouds
1:53 PM 91.0 °F 95.2 °F 68.0 °F 47% 29.99 in 10.0 mi SSW 17.3 mph 20.7 mph N/A   Scattered Clouds
2:53 PM 93.0 °F 97.4 °F 68.0 °F 44% 29.98 in 10.0 mi South 16.1 mph 24.2 mph N/A   Scattered Clouds
3:53 PM 93.9 °F 97.5 °F 66.9 °F 41% 29.98 in 10.0 mi SSW 12.7 mph 20.7 mph N/A   Scattered Clouds
4:53 PM 93.0 °F 96.4 °F 66.9 °F 42% 29.98 in 10.0 mi SSW 15.0 mph - N/A   Mostly Cloudy
5:53 PM 93.9 °F 97.0 °F 66.0 °F 40% 29.96 in 10.0 mi SSW 15.0 mph - N/A   Scattered Clouds
6:53 PM 93.2 °F 94.9 °F 64.4 °F 38% 29.98 in 10.0 mi SSW 12.7 mph - N/A   Scattered Clouds
7:53 PM 91.0 °F 93.8 °F 66.0 °F 44% 29.97 in 10.0 mi South 10.4 mph - N/A   Scattered Clouds
8:53 PM 88.0 °F 90.3 °F 66.0 °F 48% 29.98 in 10.0 mi South 10.4 mph - N/A   Partly Cloudy
9:53 PM 84.0 °F 86.3 °F 66.0 °F 55% 29.99 in 10.0 mi South 9.2 mph - N/A   Partly Cloudy
10:53 PM 82.0 °F 83.8 °F 64.9 °F 56% 30.01 in 10.0 mi South 10.4 mph - N/A   Partly Cloudy
11:53 PM 80.1 °F 81.7 °F 64.0 °F 58% 30.02 in 10.0 mi South 11.5 mph - N/A   Partly Cloudy